Location: Krakow
(50.0830°N, 19.9170°E)
Time: 03:45:33
(UTC+01:00)

Envisat - Visible Passes

Search period start: 10 December 2022 00:00
Search period end: 20 December 2022 00:00
Orbit: 763 x 765 km, 98.2° (Epoch: 09 December)

Date Brightness Start Highest point End Pass type
(mag) Time Alt. Az. Time Alt. Az. Time Alt. Az.
10 Dec 4.7 04:18:58 10° N 04:20:43 22° N 04:20:43 22° N visible
10 Dec 4.8 05:59:38 10° NNW 06:00:53 13° NW 06:00:53 13° NW visible
11 Dec 5.2 03:42:01 10° NNE 03:43:10 17° NNE 03:43:10 17° NNE visible
11 Dec 4.6 05:21:36 10° N 05:23:20 18° NNW 05:23:20 18° NNW visible
11 Dec 6.2 16:44:35 10° W 16:45:59 11° W 16:47:22 10° WNW visible
12 Dec 5.8 03:05:26 10° NE 03:05:37 11° NE 03:05:37 11° NE visible
12 Dec 4.7 04:44:08 10° N 04:45:48 20° N 04:45:48 20° N visible
13 Dec 5.0 04:06:59 10° NNE 04:08:16 18° NNE 04:08:16 18° NNE visible
13 Dec 4.8 05:47:14 10° NNW 05:48:27 14° NNW 05:48:27 14° NNW visible
14 Dec 5.5 03:30:08 10° NNE 03:30:44 13° NNE 03:30:44 13° NNE visible
14 Dec 4.7 05:09:27 10° N 05:10:55 18° NNW 05:10:55 18° NNW visible
14 Dec 5.9 16:31:11 10° WSW 16:33:49 14° W 16:36:29 10° NW visible
15 Dec 4.9 04:32:05 10° N 04:33:24 18° N 04:33:24 18° N visible
15 Dec 5.0 06:13:31 10° NNW 06:13:34 10° NNW 06:13:34 10° NNW visible
16 Dec 5.3 03:55:01 10° NNE 03:55:53 15° NNE 03:55:53 15° NNE visible
16 Dec 4.8 05:34:57 10° NNW 05:36:03 14° NNW 05:36:03 14° NNW visible
17 Dec 5.8 03:18:17 10° NNE 03:18:22 10° NNE 03:18:22 10° NNE visible
17 Dec 4.9 04:57:20 10° N 04:58:33 17° N 04:58:33 17° N visible
17 Dec 5.7 16:18:18 10° SW 16:21:41 18° W 16:25:05 10° NW visible
18 Dec 5.1 04:20:04 10° N 04:21:02 16° N 04:21:02 16° N visible
18 Dec 5.0 06:00:49 10° NNW 06:01:13 11° NNW 06:01:13 11° NNW visible
19 Dec 5.5 03:43:05 10° NNE 03:43:33 12° NNE 03:43:33 12° NNE visible
19 Dec 4.9 05:22:43 10° N 05:23:43 14° NNW 05:23:43 14° NNW visible
19 Dec 6.2 16:46:06 10° W 16:47:05 10° W 16:48:05 10° WNW visible
